CEB014 RPLL-OMDB

Flight info

Callsign CEB014
Flight time N/A
Altitude 36000
Route RPLL/06 N0477F360 SIRC2R SIRCA L628 IBOBI/N0475F340 L628 ARESI/K0885F360 L628 PCA G474 ANINA/N0475F360 G474 VEMKO M633 MUBUS/N0473F380 M633 TANEK L301 BETKU/N0467F400 L301 RAGMA N571 VUSET A454 PASOV B540 MIVEK P574 IMPED IMPE3C OMDB/30L
Aircraft A339/H-SIL/2000

Departure

Time 2026-05-07 05:48
Airport Ninoy Aquino International Airport (RPLL)

Arrival

Time N/A
Airport Dubai International Airport (OMDB)
Time Latitude Longitude Altitude Speed Heading
2026-05-07 05:27 14.51844 121.01314 90 ft 0 kts 46°
2026-05-07 05:38 14.51839 121.01308 90 ft 2 kts 46°
2026-05-07 05:38 14.51828 121.01298 90 ft 2 kts 46°
2026-05-07 05:38 14.51817 121.01286 90 ft 2 kts 46°
2026-05-07 05:38 14.51807 121.01275 90 ft 2 kts 46°
2026-05-07 05:39 14.51797 121.01263 90 ft 2 kts 68°
2026-05-07 05:39 14.51794 121.01247 90 ft 2 kts 101°
2026-05-07 05:39 14.51800 121.01233 90 ft 1 kts 130°
2026-05-07 05:39 14.51804 121.01228 90 ft 0 kts 135°
2026-05-07 05:40 14.51805 121.01228 90 ft 0 kts 135°
2026-05-07 05:41 14.51801 121.01231 89 ft 2 kts 135°
2026-05-07 05:42 14.51774 121.01260 90 ft 6 kts 135°
2026-05-07 05:42 14.51738 121.01297 90 ft 7 kts 134°
2026-05-07 05:42 14.51696 121.01341 89 ft 9 kts 134°
2026-05-07 05:42 14.51650 121.01390 89 ft 9 kts 135°
2026-05-07 05:43 14.51597 121.01444 90 ft 10 kts 136°
2026-05-07 05:43 14.51541 121.01499 89 ft 11 kts 135°
2026-05-07 05:43 14.51478 121.01564 89 ft 14 kts 135°
2026-05-07 05:43 14.51404 121.01641 89 ft 15 kts 134°
2026-05-07 05:44 14.51329 121.01720 89 ft 15 kts 134°
2026-05-07 05:44 14.51074 121.01981 89 ft 8 kts 150°
2026-05-07 05:44 14.51037 121.01971 89 ft 6 kts 229°
2026-05-07 05:44 14.50989 121.01891 89 ft 7 kts 241°
2026-05-07 05:45 14.50789 121.01534 89 ft 8 kts 240°
2026-05-07 05:45 14.50483 121.00986 89 ft 9 kts 240°
2026-05-07 05:45 14.50000 121.00114 89 ft 10 kts 240°
2026-05-07 05:45 14.49963 121.00048 89 ft 10 kts 240°
2026-05-07 05:46 14.49920 120.99980 90 ft 10 kts 221°
2026-05-07 05:46 14.49855 120.99985 90 ft 9 kts 144°
2026-05-07 05:46 14.49808 121.00032 90 ft 8 kts 114°
2026-05-07 05:46 14.49818 121.00076 90 ft 7 kts 60°
2026-05-07 05:47 14.49906 121.00234 90 ft 54 kts 60°
2026-05-07 05:47 14.50195 121.00754 90 ft 110 kts 60°
2026-05-07 05:47 14.50669 121.01609 90 ft 159 kts 61°
2026-05-07 05:47 14.51273 121.02721 181 ft 189 kts 62°
2026-05-07 05:48 14.51892 121.03873 798 ft 182 kts 63°
2026-05-07 05:48 14.52479 121.04957 1493 ft 175 kts 62°
2026-05-07 05:48 14.53099 121.06049 1945 ft 177 kts 62°
2026-05-07 05:48 14.53747 121.07198 2186 ft 188 kts 62°
2026-05-07 05:49 14.54424 121.08406 2408 ft 200 kts 62°
2026-05-07 05:49 14.55160 121.09682 2635 ft 214 kts 54°
2026-05-07 05:49 14.56419 121.10600 2852 ft 234 kts 15°
2026-05-07 05:49 14.58136 121.10463 3089 ft 257 kts 337°
2026-05-07 05:50 14.59538 121.09216 3331 ft 277 kts 301°
2026-05-07 05:50 14.60046 121.07282 3724 ft 287 kts 268°
2026-05-07 05:50 14.59715 121.05269 4277 ft 287 kts 255°
2026-05-07 05:50 14.59172 121.03254 4833 ft 288 kts 254°
2026-05-07 05:51 14.58657 121.01261 5398 ft 289 kts 256°
2026-05-07 05:51 14.58187 120.99232 5924 ft 290 kts 257°
2026-05-07 05:51 14.57754 120.97175 6490 ft 291 kts 258°
2026-05-07 05:51 14.57347 120.95108 6996 ft 293 kts 259°
2026-05-07 05:52 14.56953 120.93029 7499 ft 296 kts 259°
2026-05-07 05:52 14.56560 120.90913 7999 ft 299 kts 259°
2026-05-07 05:52 14.56178 120.88824 8485 ft 301 kts 259°
2026-05-07 05:52 14.55784 120.86665 8979 ft 303 kts 259°
2026-05-07 05:53 14.55394 120.84518 9476 ft 305 kts 259°
2026-05-07 05:53 14.55002 120.82365 9939 ft 307 kts 259°
2026-05-07 05:53 14.54603 120.80167 10359 ft 314 kts 259°
2026-05-07 05:53 14.54192 120.77908 10574 ft 326 kts 259°
2026-05-07 05:54 14.53763 120.75546 10798 ft 339 kts 259°
2026-05-07 05:54 14.53318 120.73104 11008 ft 351 kts 259°
2026-05-07 05:54 14.52853 120.70546 11279 ft 362 kts 259°